Temp
28 24 25 25 27 28 29 29 29 32 33 27 27 28 28 30 28 28 28 28 27 27 27 26 26 26 25 24 24 23 22 22 21 21 21 20 20 20 20 21 21 20 20 20
25 25 26 29 29 29 29 29 29 31 33 28 26 27 27 27 28 27 29 28 28 27 27 27 26 26 25 25 24 23 23 22 21 21 21 20 20 20 20 20 20 20 20 20
25 27 29 29 29 29 29 28 29 30 32 30 26 26 24 27 30 29 30 29 28 28 28 27 26 26 25 25 24 24 23 22 22 21 20 20 20 20 20 20 20 21 21 20
27 29 29 28 28 29 27 30 31 31 31 28 29 26 24 27 29 29 30 30 29 28 28 28 27 26 26 25 25 24 23 22 22 21 20 20 21 21 21 21 21 21 21 20
27 28 28 28 29 30 29 31 31 31 30 29 30 28 26 27 28 29 30 30 30 29 29 28 27 27 26 25 25 24 24 23 22 21 21 20 21 21 21 20 21 21 21 20
28 31 29 29 31 31 31 30 30 30 30 28 28 29 26 28 29 30 31 31 31 30 30 29 28 27 26 26 25 25 24 23 23 22 21 20 20 20 21 21 21 21 21 21
28 28 30 31 29 30 30 27 27 26 27 26 27 28 26 30 31 31 32 32 32 31 30 29 28 27 27 26 25 25 24 24 23 22 21 20 20 20 21 21 21 21 21 20
25 25 29 30 30 28 29 28 27 23 26 27 27 28 29 32 33 33 33 33 33 33 30 30 30 28 27 26 26 25 24 24 23 23 22 21 20 21 21 21 20 21 21 21
25 25 30 31 31 30 28 28 29 26 26 25 28 29 31 31 33 32 32 33 32 33 31 30 30 29 27 26 26 26 24 24 24 23 22 22 21 21 21 21 21 21 21 21
26 24 28 31 31 31 30 30 27 28 25 26 28 27 28 29 31 29 29 30 32 33 33 31 30 30 28 28 27 26 25 24 24 23 23 22 22 21 21 22 21 21 20 21
28 26 27 29 29 29 28 28 27 27 27 26 25 28 29 29 30 30 31 32 34 33 32 32 31 30 30 28 27 26 26 24 24 24 23 23 22 22 21 21 22 21 21 21
28 26 25 27 29 31 30 28 26 26 23 24 26 27 30 31 31 32 32 33 35 34 33 32 32 30 29 28 27 27 26 25 24 24 24 23 23 22 22 22 22 22 21 20
29 27 24 26 27 29 30 30 28 28 24 23 23 27 31 32 31 34 32 33 35 35 33 32 31 30 29 29 28 26 26 26 25 24 24 23 23 23 23 23 23 22 22 21
25 29 27 26 26 27 27 29 29 28 26 27 27 27 28 31 29 31 34 35 35 34 35 33 31 30 29 29 28 27 26 26 26 25 24 24 23 24 24 24 24 23 23 21
24 25 28 28 28 29 29 29 30 28 28 26 27 27 27 28 27 27 34 35 34 35 35 33 31 30 30 29 29 28 27 26 26 25 24 24 24 24 24 23 24 24 22 22
17 21 25 27 29 29 29 30 30 30 30 29 28 28 28 28 32 29 31 32 35 35 34 34 33 32 32 31 30 28 27 26 26 26 25 25 23 23 23 23 23 22 22 21
16 18 22 23 26 27 27 29 29 29 30 29 28 29 28 28 29 30 31 32 34 34 33 34 34 33 32 32 32 29 29 27 26 27 26 25 24 23 23 22 22 21 21 21
17 18 20 22 24 23 27 29 30 30 29 29 29 27 27 26 31 32 33 33 32 33 33 34 34 33 33 32 32 32 29 27 27 27 26 26 25 25 24 23 22 21 21 21
21 19 20 20 23 25 27 28 29 28 28 30 28 28 29 29 31 30 32 33 33 34 33 33 33 34 33 32 32 31 29 28 27 27 27 26 26 26 24 24 23 22 21 21
22 22 21 20 21 22 26 28 30 29 25 26 25 25 26 27 24 23 29 29 30 32 33 33 33 32 33 32 32 31 30 28 27 27 27 27 26 26 25 24 23 23 22 21
19 20 21 21 22 23 26 28 28 24 23 24 26 26 25 24 24 28 29 30 30 31 32 33 33 33 33 32 31 30 30 29 29 27 26 26 26 26 25 24 23 22 21 21
15 12 17 20 21 22 26 26 26 21 25 26 26 27 27 27 28 28 29 30 30 30 30 32 33 33 33 33 32 30 29 29 27 26 27 26 26 25 24 23 22 22 22 21
14 14 13 19 20 21 23 22 25 23 22 22 23 25 26 24 24 25 25 26 27 28 30 31 32 32 32 33 31 30 29 28 26 26 25 25 24 24 23 22 22 23 20 19
14 13 14 16 19 21 22 23 21 20 19 19 20 20 23 22 23 24 24 24 25 25 27 28 28 28 27 28 29 28 27 27 25 24 24 23 23 22 21 21 22 20 19 18
11 12 14 15 15 14 19 20 19 19 18 18 18 18 19 21 21 22 22 21 22 23 23 25 26 26 26 26 26 25 25 25 24 23 22 21 21 21 20 20 19 18 18 17
10 12 13 13 11 12 14 17 18 18 17 17 18 17 17 19 18 20 19 20 21 22 22 23 22 23 23 23 23 23 23 23 22 22 22 22 20 19 19 18 18 17 17 16
Height
1453 1462 1462 1461 1459 1460 1461 1462 1461 1445 1439 1457 1464 1467 1465 1465 1472 1478 1479 1485 1493 1500 1506 1512 1516 1521 1524 1527 1530 1533 1537 1539 1543 1547 1550 1553 1556 1560 1562 1564 1566 1567 1568 1570
1453 1454 1450 1450 1451 1456 1456 1460 1457 1445 1432 1447 1464 1464 1459 1458 1460 1467 1474 1477 1483 1491 1498 1504 1509 1514 1518 1521 1524 1529 1533 1536 1539 1543 1547 1550 1554 1557 1559 1561 1563 1564 1566 1567
1449 1443 1445 1446 1448 1452 1453 1457 1452 1457 1441 1441 1464 1472 1470 1459 1457 1464 1470 1470 1477 1480 1487 1494 1501 1506 1510 1514 1518 1523 1528 1533 1536 1540 1544 1547 1551 1554 1556 1558 1560 1562 1563 1565
1438 1436 1438 1441 1443 1443 1457 1436 1441 1445 1452 1474 1452 1488 1473 1459 1456 1457 1463 1465 1469 1474 1479 1485 1491 1497 1502 1506 1512 1517 1522 1527 1532 1535 1539 1542 1546 1548 1551 1554 1556 1558 1560 1561
1429 1429 1432 1435 1435 1433 1436 1434 1437 1437 1445 1448 1450 1469 1462 1451 1459 1454 1452 1456 1460 1466 1471 1475 1479 1485 1491 1497 1502 1508 1515 1521 1526 1530 1534 1538 1542 1545 1548 1551 1553 1555 1557 1558
1417 1416 1419 1422 1422 1422 1425 1433 1434 1435 1441 1467 1450 1461 1462 1450 1443 1441 1439 1445 1450 1459 1463 1468 1472 1478 1485 1490 1495 1500 1506 1513 1518 1524 1528 1533 1536 1539 1544 1547 1549 1552 1553 1555
1415 1412 1410 1411 1421 1418 1422 1443 1465 1473 1466 1469 1439 1449 1446 1425 1425 1423 1429 1438 1444 1452 1457 1461 1466 1471 1477 1481 1486 1492 1499 1505 1511 1517 1522 1526 1531 1535 1539 1542 1544 1547 1549 1550
1430 1434 1405 1399 1407 1419 1419 1430 1452 1483 1469 1459 1432 1445 1429 1406 1404 1409 1417 1427 1436 1439 1444 1450 1454 1460 1466 1474 1480 1484 1490 1498 1504 1509 1515 1521 1525 1530 1535 1538 1541 1543 1545 1547
1419 1417 1392 1393 1393 1401 1418 1420 1415 1448 1441 1458 1434 1421 1403 1398 1398 1404 1411 1416 1426 1430 1441 1440 1447 1452 1458 1466 1471 1477 1483 1490 1497 1502 1508 1514 1519 1524 1528 1533 1537 1539 1542 1543
1398 1419 1391 1387 1389 1390 1396 1402 1434 1424 1464 1464 1437 1434 1426 1405 1398 1401 1405 1410 1413 1420 1426 1432 1439 1444 1448 1454 1463 1471 1475 1481 1490 1497 1502 1507 1512 1517 1523 1528 1531 1534 1537 1539
1388 1400 1395 1384 1386 1395 1398 1402 1408 1416 1424 1447 1457 1427 1395 1394 1391 1395 1399 1400 1399 1406 1410 1422 1428 1434 1439 1447 1457 1463 1469 1475 1482 1489 1495 1500 1505 1511 1517 1521 1525 1528 1532 1535
1371 1387 1401 1386 1371 1367 1375 1389 1402 1427 1441 1430 1432 1420 1380 1383 1384 1374 1377 1386 1391 1397 1402 1411 1419 1428 1436 1438 1447 1454 1461 1466 1473 1480 1488 1493 1498 1504 1510 1514 1517 1521 1526 1528
1357 1371 1401 1392 1376 1366 1369 1373 1383 1391 1413 1428 1446 1410 1378 1377 1382 1383 1387 1393 1393 1394 1399 1403 1411 1420 1427 1433 1438 1446 1453 1458 1466 1473 1480 1486 1491 1495 1500 1505 1509 1514 1518 1522
1357 1345 1358 1378 1373 1369 1374 1367 1370 1386 1405 1405 1402 1404 1389 1378 1379 1371 1383 1385 1389 1396 1395 1399 1404 1411 1419 1425 1430 1438 1444 1451 1458 1465 1471 1477 1481 1486 1491 1496 1502 1506 1509 1513
1350 1348 1336 1343 1351 1354 1358 1360 1360 1373 1377 1400 1393 1397 1385 1380 1378 1373 1372 1376 1386 1389 1390 1392 1397 1406 1413 1419 1424 1430 1436 1444 1450 1456 1462 1466 1472 1479 1485 1489 1493 1499 1503 1506
1357 1350 1332 1340 1337 1344 1353 1348 1351 1354 1362 1371 1376 1378 1367 1369 1369 1370 1370 1372 1375 1383 1387 1388 1393 1399 1405 1410 1415 1421 1428 1435 1443 1447 1451 1459 1466 1471 1476 1481 1486 1490 1496 1500
1374 1361 1348 1351 1336 1348 1364 1339 1348 1348 1345 1355 1372 1360 1364 1367 1368 1368 1371 1370 1369 1379 1384 1387 1390 1393 1399 1404 1409 1413 1417 1425 1434 1439 1444 1451 1457 1462 1467 1474 1479 1483 1487 1493
1364 1366 1357 1345 1346 1378 1334 1323 1329 1341 1340 1340 1345 1351 1354 1354 1357 1363 1367 1371 1375 1375 1378 1382 1385 1390 1395 1400 1405 1409 1412 1417 1423 1429 1434 1440 1447 1453 1460 1466 1470 1477 1482 1487
1346 1352 1357 1354 1351 1340 1332 1327 1331 1340 1344 1335 1341 1342 1346 1344 1346 1352 1360 1362 1367 1372 1374 1381 1381 1387 1389 1391 1397 1403 1406 1409 1415 1420 1426 1430 1437 1445 1452 1457 1464 1470 1476 1481
1334 1335 1346 1345 1355 1360 1332 1324 1323 1325 1358 1333 1336 1342 1345 1346 1364 1357 1355 1361 1364 1366 1366 1372 1376 1383 1383 1386 1388 1392 1395 1402 1406 1411 1416 1423 1430 1437 1443 1450 1458 1464 1471 1475
1342 1338 1341 1337 1348 1338 1319 1322 1324 1358 1361 1334 1335 1340 1344 1351 1354 1353 1350 1353 1358 1359 1360 1362 1366 1371 1376 1382 1382 1384 1388 1391 1395 1404 1413 1420 1427 1433 1437 1445 1452 1458 1465 1469
1365 1382 1361 1342 1347 1355 1320 1325 1339 1340 1334 1336 1338 1341 1345 1348 1350 1351 1349 1349 1350 1353 1356 1356 1358 1362 1367 1370 1374 1379 1382 1386 1394 1402 1410 1417 1423 1428 1433 1439 1446 1455 1459 1463
1375 1374 1379 1357 1343 1325 1326 1331 1334 1333 1336 1342 1339 1342 1345 1347 1349 1348 1347 1349 1350 1348 1348 1348 1349 1352 1355 1358 1363 1371 1378 1384 1392 1400 1408 1413 1419 1423 1429 1435 1445 1449 1454 1459
1363 1368 1368 1358 1332 1325 1332 1334 1336 1340 1342 1343 1345 1345 1345 1348 1350 1349 1349 1350 1352 1353 1350 1347 1346 1346 1352 1356 1364 1369 1373 1381 1387 1396 1403 1408 1413 1420 1427 1433 1438 1443 1449 1452
1370 1376 1369 1354 1340 1347 1336 1338 1339 1341 1346 1348 1348 1350 1349 1349 1353 1354 1354 1354 1356 1357 1355 1351 1346 1347 1354 1362 1366 1369 1372 1378 1383 1391 1399 1407 1413 1418 1424 1432 1437 1441 1444 1450
1380 1378 1372 1364 1360 1342 1347 1347 1345 1342 1352 1350 1352 1354 1354 1354 1358 1359 1358 1360 1360 1362 1354 1356 1350 1349 1352 1357 1364 1369 1373 1374 1384 1394 1403 1406 1413 1419 1423 1429 1434 1439 1445 1448
Wind_Speed
22 8 16 13 14 11 14 15 16 19 9 7 5 14 10 20 15 16 34 36 39 41 37 38 35 34 32 32 34 33 31 26 24 23 20 18 18 14 14 15 14 13 12 14
10 18 12 12 11 18 20 19 20 14 12 12 13 16 14 11 20 22 31 36 41 42 41 40 40 39 37 37 37 36 34 31 25 26 24 21 21 20 15 14 15 15 15 13
17 9 16 18 17 18 21 20 16 10 9 9 10 3 4 14 11 26 32 41 42 46 46 44 45 42 42 40 40 39 36 34 34 26 26 24 19 21 21 21 17 16 14 17
14 17 18 22 21 19 18 22 20 19 10 14 15 7 9 15 14 15 28 36 41 43 48 49 49 46 45 44 40 39 37 35 36 34 29 28 24 25 24 12 16 17 12 13
19 18 20 21 23 19 21 13 19 21 15 9 12 4 10 19 18 21 22 38 41 45 48 52 52 52 48 46 46 42 39 37 33 36 37 32 23 24 19 16 15 16 18 16
18 18 19 20 16 21 16 14 17 17 12 10 15 16 6 14 28 22 23 32 42 43 50 49 54 52 50 48 47 46 42 39 35 31 32 32 27 21 24 20 20 21 21 17
19 22 19 20 18 14 19 8 12 12 11 9 12 13 9 21 16 26 24 30 35 42 45 49 50 53 54 51 48 48 45 42 39 33 30 33 32 28 22 24 22 23 20 18
15 18 23 13 20 15 16 16 12 13 14 9 9 12 13 18 17 35 40 31 42 39 51 52 55 57 57 54 50 48 49 45 41 37 32 30 37 30 29 23 23 24 23 20
15 18 8 24 20 18 11 21 14 5 8 6 8 9 11 15 19 16 25 31 38 38 37 51 55 56 58 56 53 50 49 47 42 38 33 32 37 38 32 33 25 26 25 21
10 7 20 21 22 17 19 6 11 14 15 19 16 10 12 8 18 14 12 20 32 33 45 49 54 56 57 58 55 51 49 48 45 40 36 32 37 40 37 35 35 30 26 24
25 17 18 15 19 23 12 17 12 7 13 12 10 16 8 10 16 16 18 32 37 51 46 48 55 57 57 56 55 54 51 48 47 43 39 36 35 40 38 39 39 39 30 28
24 15 16 25 17 24 24 13 11 9 6 4 8 15 9 13 7 25 31 36 37 26 51 49 54 53 55 54 55 57 54 51 47 44 41 38 37 38 40 42 42 41 39 34
16 19 11 17 17 19 26 19 14 15 5 12 5 14 18 17 3 6 4 14 29 26 33 47 50 51 56 54 54 56 56 52 49 45 43 41 39 39 42 42 44 44 42 40
12 19 27 19 19 5 9 22 20 17 13 16 22 14 18 5 7 14 25 30 18 32 23 46 48 55 56 56 53 54 56 53 49 47 45 44 44 42 42 43 44 46 45 41
5 19 20 26 19 14 24 14 25 22 21 16 13 16 14 10 9 9 23 25 28 12 16 37 47 53 53 54 54 53 53 53 48 46 46 46 45 44 42 44 45 45 48 47
12 8 12 17 26 25 26 19 20 25 22 19 17 19 6 7 26 18 21 26 29 18 24 34 41 50 53 53 54 55 54 54 50 46 46 45 45 45 45 45 46 45 43 44
10 5 3 8 7 5 20 28 18 11 17 18 17 18 7 9 6 8 11 12 11 18 21 31 35 40 48 51 50 55 55 55 52 48 46 45 45 44 44 45 45 44 42 40
19 15 10 6 6 8 7 10 15 15 8 12 10 9 11 11 20 15 12 6 7 16 22 34 33 29 32 46 51 49 55 57 55 51 49 46 45 44 42 42 43 42 40 38
17 12 6 5 11 2 7 7 5 7 13 2 5 5 6 15 11 9 11 19 26 25 32 18 26 30 30 34 38 51 54 58 57 55 52 51 47 44 46 45 42 40 38 37
16 13 10 3 7 15 3 5 6 5 3 7 10 9 8 9 3 4 21 15 6 14 32 30 25 28 38 35 38 40 49 56 60 58 56 54 50 47 48 47 43 40 38 36
5 3 8 5 5 5 3 13 5 7 6 7 15 10 10 4 0 13 19 21 18 15 18 33 46 36 26 27 38 42 45 52 56 59 54 52 48 47 47 44 40 41 36 34
4 4 6 4 3 4 4 5 7 7 12 12 13 10 5 6 10 14 17 19 22 18 10 21 33 41 38 31 36 46 46 46 49 49 43 46 40 41 40 38 38 33 31 31
3 3 5 9 3 1 18 11 12 21 24 17 18 12 8 19 20 20 25 17 6 2 3 12 21 30 32 35 38 42 41 40 36 39 39 33 34 34 34 34 29 30 28 27
3 9 5 7 8 10 6 5 27 25 26 20 18 18 19 22 18 21 21 19 15 11 13 16 22 24 21 31 35 35 36 36 32 35 36 35 37 33 29 28 28 26 25 21
4 9 7 7 8 25 19 21 27 25 19 19 21 22 25 25 24 20 18 17 15 15 16 20 23 25 24 19 22 28 32 35 35 37 35 32 32 32 31 27 24 22 20 16
3 3 2 3 13 8 18 21 20 26 23 23 23 25 25 24 25 25 24 19 14 9 7 12 25 28 28 27 29 31 33 33 35 33 26 28 29 29 27 25 22 19 15 15
Wind_Direction
216 212 223 217 217 231 246 247 250 250 176 93 124 172 199 187 196 206 171 175 181 191 199 199 195 199 199 199 199 205 202 213 216 209 207 205 196 203 219 232 229 238 248 253
220 223 220 233 220 222 245 254 265 295 166 115 176 187 215 222 206 197 184 179 182 187 193 198 196 198 202 207 209 208 212 209 214 219 216 215 211 209 217 220 234 243 245 253
220 226 214 231 228 224 228 242 258 244 246 120 158 281 235 252 187 205 197 184 186 187 190 195 196 198 201 206 211 213 212 210 214 214 211 214 220 224 224 226 236 238 250 255
224 225 219 219 232 225 227 231 248 257 247 207 175 214 223 219 198 212 207 187 188 189 191 194 196 197 201 207 212 217 215 213 213 216 216 223 232 212 209 208 229 237 245 248
225 214 228 226 223 231 235 228 236 253 256 158 230 224 206 194 208 225 190 192 191 190 191 196 199 200 202 206 209 215 217 216 219 218 224 228 222 219 208 214 220 229 238 235
236 221 229 234 239 221 243 230 249 253 253 225 205 211 248 187 198 203 194 192 190 193 195 201 204 203 201 206 209 212 215 217 220 221 222 223 213 214 209 211 218 228 217 230
232 232 244 220 235 225 219 216 238 249 241 237 204 204 204 237 209 195 195 197 189 191 195 196 199 199 201 203 207 211 213 216 217 222 219 216 214 214 206 208 226 219 221 233
218 237 227 222 221 222 211 213 223 221 230 250 244 205 224 208 210 186 186 197 189 198 194 196 202 202 202 202 205 211 212 213 216 219 221 215 213 214 204 205 215 226 235 240
206 233 232 227 238 213 231 215 222 266 257 263 236 267 261 205 222 190 179 180 187 214 197 196 200 203 201 201 206 211 213 213 216 219 221 217 212 216 207 204 213 225 229 233
248 251 219 240 223 236 209 191 203 223 231 245 251 245 241 230 204 174 182 198 206 201 206 195 197 202 206 204 205 210 217 216 215 217 220 222 216 215 215 213 213 217 222 224
216 240 253 227 218 214 226 219 226 194 221 234 240 249 247 232 179 176 196 199 196 202 200 193 198 201 208 203 203 207 212 215 215 216 219 224 223 218 217 217 219 219 218 217
201 213 237 249 257 208 216 206 203 223 263 253 237 256 261 242 177 193 191 192 199 189 193 191 195 194 200 201 203 206 210 215 219 219 220 224 226 223 220 219 222 223 222 224
200 212 220 248 261 253 210 210 200 219 168 235 192 251 251 256 151 103 171 214 209 225 196 185 187 189 195 200 202 204 209 214 218 220 223 226 226 226 224 222 222 225 223 223
316 208 211 222 233 235 224 206 202 198 219 236 242 259 271 282 219 181 210 230 203 239 212 189 184 189 193 198 203 204 208 213 217 221 224 226 228 227 226 226 224 225 228 227
310 245 207 214 221 224 240 233 204 205 210 206 235 230 242 236 218 212 192 194 224 231 205 189 176 185 194 198 204 207 209 208 216 219 224 227 229 230 229 230 232 229 228 234
328 282 190 206 211 219 241 241 237 209 216 228 232 251 218 229 214 207 210 194 194 225 201 189 184 192 198 202 205 206 210 209 210 218 223 227 227 229 230 232 233 236 234 234
280 349 264 206 175 233 236 231 245 245 216 202 214 235 222 263 224 184 214 202 185 222 219 194 195 198 203 206 212 209 211 211 209 216 221 224 227 228 231 232 234 235 236 238
264 282 279 157 132 209 244 194 218 238 240 216 202 189 206 209 232 218 228 172 247 292 239 209 207 198 203 211 213 219 213 210 211 214 219 220 225 228 229 231 233 233 235 237
245 256 277 160 193 315 275 260 212 215 249 227 91 103 92 25 248 232 219 211 212 240 246 248 205 211 210 206 209 217 214 214 212 215 217 221 222 226 227 229 230 232 231 233
238 250 253 177 173 217 183 244 273 94 188 107 100 78 55 48 42 275 343 354 329 236 226 239 243 253 220 211 210 210 214 214 213 216 220 220 222 224 228 229 228 230 229 232
305 267 256 188 196 275 174 229 77 143 231 95 90 75 64 87 197 327 338 323 310 320 240 222 215 225 230 231 223 211 212 214 220 215 215 218 220 224 227 226 225 222 222 228
29 44 313 329 158 255 1 71 189 191 72 80 75 58 30 356 339 332 316 302 299 285 268 235 221 231 236 234 222 210 210 217 210 208 210 215 212 218 218 217 215 217 219 223
220 97 301 315 325 131 64 76 60 99 82 59 74 62 72 69 66 54 46 34 37 97 197 236 231 223 218 222 206 204 205 206 202 201 201 201 198 202 203 200 209 222 212 214
12 29 287 302 342 64 37 62 94 84 69 78 72 78 94 90 82 78 73 65 58 64 135 153 162 167 167 184 194 201 195 196 188 184 190 191 188 187 193 205 220 213 207 213
41 327 289 284 14 339 60 80 94 88 78 82 80 82 87 92 82 82 78 73 77 94 113 141 154 152 153 167 175 178 178 183 178 180 181 178 186 195 195 196 193 201 211 220
165 271 321 18 359 282 22 61 84 81 78 79 84 76 79 88 87 93 89 85 88 82 104 139 127 138 143 156 159 165 172 176 172 173 192 193 183 181 183 189 189 187 199 207